Regional Weather Roundup
Issued by NWS

Home | Current Version | Previous Version | Text Only | Print | Product List | Glossary On
Versions: 1 2 3 4 5 6 7 8 9 10 11 12 13 14 15 16 17 18 19 20 21 22 23 24 25 26 27 28 29 30 31 32 33 34 35 36 37 38 39 40 41 42 43 44 45 46 47 48 49 50
000
ASUS43 KMPX 181010
RWRMN
WEATHER ROUNDUP FOR MINNESOTA
NATIONAL WEATHER SERVICE TWIN CITIES/CHANHASSEN MN
400 AM CST SUN FEB 18 2018


NOTE: "FAIR" INDICATES FEW OR NO CLOUDS BELOW 12,000 FEET WITH NO
SIGNIFICANT WEATHER AND/OR OBSTRUCTIONS TO VISIBILITY. N/A MEANS
CURRENT SKY AND/OR WEATHER CONDITIONS ARE NOT AVAILABLE.

MNZ060>063-068>070-181100-
   Twin Cities Metro

CITY           SKY/WX    TMP DP  RH WIND       PRES   REMARKS
TWIN CITIES    CLOUDY    20  10  65 SE3       30.06F
ST PAUL        CLOUDY    19  10  68 S3        30.08F
CRYSTAL        CLOUDY    20   9  62 CALM      30.05F
BLAINE         MOCLDY    19  10  68 SE3       30.05F
LAKEVILLE        N/A     12   9  85 CALM      30.05S
EDEN PRAIRIE   CLOUDY    20   9  62 SE5       30.04F WCI  13
SOUTH ST PAUL  MOCLDY    18   9  68 CALM      30.06F
LAKE ELMO      FAIR      18   9  68 CALM      30.06F
$$
MNZ001>005-007-008-013>017-022>024-027-028-181100-
   Northwest Minnesota

CITY           SKY/WX    TMP DP  RH WIND       PRES   REMARKS
BEMIDJI        FAIR       6   3  86 E3        29.93F
HALLOCK        FAIR       3  -2  78 SE3       29.93F
WARROAD        FAIR      -2  -6  84 S3        29.96S
THIEF RVR FALL CLOUDY     8   1  73 SE8       29.93F WCI  -4
CROOKSTON      FAIR      10   3  72 E10       29.93F WCI  -3
FOSSTON        FAIR       9   3  78 E6        29.92F WCI  -1
DETROIT LAKES  LGT SNOW  14  10  85 E3        29.90F
MOORHEAD       FLURRIES  16   9  73 E8        29.89F WCI   5
PARK RAPIDS    CLOUDY     9   3  77 E5        29.92F WCI   1
MAHNOMEN       CLOUDY    12   8  83 E6        29.90F WCI   2
$$
MNZ006-009>011-018-025>026-181100-
   North Central Minnesota

CITY           SKY/WX    TMP DP  RH WIND       PRES   REMARKS
BAUDETTE       FAIR      -5 -10  79 SE6       29.95F WCI -18
FLAG ISLAND    FAIR      -8 -11  84 SE6       29.95F WCI -21
INTL FALLS     FAIR      -9 -12  87 CALM      29.99R
WASKISH        CLOUDY     5   0  78 SE3       29.96F
BIG FORK       CLOUDY     5   1  85 SE3       29.97F
LONGVILLE      CLOUDY     7   3  85 CALM      29.97F
GRAND RAPIDS   CLOUDY     9   3  77 SE3       29.99F
CRANE LAKE     FAIR      -6  -9  84 CALM      30.04R
ORR            CLOUDY     0  -6  78 CALM      29.96F
COOK           CLOUDY     0  -4  85 CALM        N/A
WALKER         CLOUDY    11   3  71 CALM      29.95F
$$
MNZ012-019>021-037-181100-
   Northeast Minnesota

CITY           SKY/WX    TMP DP  RH WIND       PRES   REMARKS
DULUTH         FAIR       9   1  70 W3        30.01R
ELY            FAIR       0  -6  78 CALM      29.99S
HIBBING        CLOUDY     2  -3  80 CALM      30.00S
EVELETH        CLOUDY   N/A N/A N/A CALM      30.01S
DULUTH HARBOR  FAIR      14   7  73 SW7       30.09R WCI   4
TWO HARBORS    FAIR       9   1  72 NW5       30.02S WCI   0
GRAND MARAIS     N/A     12   3  67 SW5       30.07R WCI   4
G MARAIS ARPRT FAIR       3  -6  66 W5        29.94R WCI  -6
$$
MNZ029>031-032-039>041-046>048-054>057-064-181100-
   West Central Minnesota

CITY           SKY/WX    TMP DP  RH WIND       PRES   REMARKS
FERGUS FALLS   FAIR      19   9  63 SE8       29.88F WCI   9
WHEATON        CLOUDY    19  14  79 E14G23    29.85F WCI   6
MORRIS         CLOUDY    21   9  58 SE15      29.86F WCI   8
ALEXANDRIA     LGT SNOW  18  10  71 SE13      29.91F WCI   5
ELBOW LAKE     LGT SNOW  18  13  80 SE13G18   29.88F WCI   5
WADENA         CLOUDY    14   9  79 E5        29.91F WCI   6
GLENWOOD       FAIR      19   9  63 SE13      29.92F WCI   7
APPLETON       CLOUDY    23  14  68 E13       29.86F WCI  11
BENSON         CLOUDY    23   7  50 SE12G17   29.91F WCI  12
ORTONVILLE     CLOUDY    21  12  68 SE12      29.85F WCI   9
MADISON        CLOUDY    27  19  74 E13       29.86F WCI  16
WILLMAR        FAIR      21   9  58 E16       29.95F WCI   7
$$
MNZ033>034-036-042>043-049>051-058-059-181100-
   Central Minnesota

CITY           SKY/WX    TMP DP  RH WIND       PRES   REMARKS
ST CLOUD       CLOUDY    17   8  67 SE5       30.01F WCI  10
SAUK CENTRE    CLOUDY    18   8  63 SE9       29.95F WCI   7
PAYNESVILLE    CLOUDY    21   9  60 SE9       29.98F WCI  11
AITKIN         FAIR      10   3  72 S3        29.99F
PINE RIVER     CLOUDY     9   3  78 SE3       30.01S
BRAINERD       CLOUDY    15   4  61 SE6       29.98F WCI   6
STAPLES        CLOUDY    12   5  73 SE3       29.94F
LONG PRAIRIE   FAIR      18   9  68 E6        29.95F WCI   9
LITTLE FALLS   CLOUDY    16   3  57 SE5       29.99F WCI   9
LITCHFIELD     MOCLDY    21  12  68 SE8       30.00F WCI  12
BUFFALO        CLOUDY    19  10  68 CALM      30.04R
MAPLE LAKE     CLOUDY    19  12  74 CALM      30.04R
HUTCHINSON     CLOUDY    22  13  69 E9        30.02S WCI  12
$$
MNZ037-044-045-052-053-181100-
   East Central Minnesota

CITY           SKY/WX    TMP DP  RH WIND       PRES   REMARKS
PRINCETON      CLOUDY    18   9  68 CALM      30.02F
MORA           FAIR      12   5  73 CALM      30.05F
CAMBRIDGE        N/A     18   7  62 CALM      30.03F
RUSH CITY      CLOUDY    15   7  73 CALM      30.04F
MOOSE LAKE     MOCLDY     9   3  78 CALM      30.02F
HINCKLEY       CLOUDY    10   5  79 CALM      30.05F
CLOQUET        FAIR      10   1  67 S6        30.02S WCI   1
MCGREGOR       CLOUDY    12   5  73 CALM      30.01F
$$
MNZ071>073-080-081-089-090-097-098-181100-
   Southwest Minnesota

CITY           SKY/WX    TMP DP  RH WIND       PRES   REMARKS
MONTEVIDEO     CLOUDY    23  16  74 SE14      29.88F WCI  11
GRANITE FALLS  CLOUDY    24  19  80 E13       29.89F WCI  13
CANBY          CLOUDY    25  21  85 SE8       29.85F WCI  16
MARSHALL       CLOUDY    23  19  85 SE16      29.86F WCI  10
REDWOOD FALLS  CLOUDY    20  16  84 E10       29.94F WCI   9
OLIVIA         CLOUDY    25  14  63 E13       29.93F WCI  13
PIPESTONE      CLOUDY    23  21  93 S16       29.82F WCI  10
WINDOM         MOCLDY    19   7  58 SE8       29.91F WCI   9
WORTHINGTON    CLOUDY    20  19  96 SE10      29.90F WCI   9
JACKSON        CLOUDY    21  19  93 SE10      29.94F WCI  10
TRACY          CLOUDY    23  20  91 SE13      29.87F WCI  11
SLAYTON        CLOUDY    19  18  95 SE13      29.88F WCI   7
$$
MNZ065>067-074>077-082>085-091>093-181100-
   South Central Minnesota

CITY           SKY/WX    TMP DP  RH WIND       PRES   REMARKS
MANKATO        FAIR      17  14  88 SE9       30.03  WCI   6
NEW ULM        CLOUDY    18  12  79 E7        29.97F WCI   8
ST JAMES       PTCLDY    18  16  93 E9        29.98F WCI   6
FAIRMONT       CLOUDY    16  14  92 SE12      29.98F WCI   3
GLENCOE        CLOUDY    22  15  75 E8        30.03F WCI  12
FARIBAULT      FAIR      18  12  79 CALM      30.05S
OWATONNA       FAIR      16  16 100 SE6       30.03F WCI   7
WASECA         FAIR      18  14  86 E7        30.04F WCI   8
ALBERT LEA     FAIR      18  16  93 CALM      30.03S
$$
MNZ078>079-086>088-094>096-181100-
   Southeast Minnesota

CITY           SKY/WX    TMP DP  RH WIND       PRES   REMARKS
ROCHESTER      MOCLDY    13  12  96 E8        30.05F WCI   2
RED WING       FAIR      12   5  73 SE6       30.08F WCI   3
STANTON        FAIR      12   7  80 CALM      30.04F
DODGE CENTER   MOCLDY    12  10  92 E6        30.02F WCI   3
WINONA         FAIR      12  10  92 CALM      30.13F
AUSTIN         FAIR      12  10  92 SE5       30.04F WCI   4
PRESTON        FAIR      14  12  91 SE7       30.08F FOG     WCI   4
$$
ABBREVIATIONS USED IN REMARKS
   TC - TEMPERATURES IN CELSIUS
  WCI - WIND CHILL INDEX
   HX - HEAT INDEX
  VSB - VISIBILITY
$$




USA.gov is the U.S. government's official web portal to all federal, state and local government web resources and services.